When you browse on this site, cookies collect data to enhance your experience and personalize the content and advertising you see.
Visit our Privacy Policy to learn more. By continuing to use the site, you agree to this use of cookies and data.
  • Em Portugal
  • Lista de países
  • Para 7 dias
  • Temperatura da água
  • Mapas de satélite
  • Mapa do tempo
  • Widgets de tempo
  • user-avatar
    Iniciar Sessão

    Previsão horária em Przejeslaw

    Hoje, 15 Dezembro, Sábado

    Tempo Temperatura Precipitação Vento Pressão Humidade
    00:00 -4°C° 0 mm 2 m/s 755 mmHg 85%
    01:00 -2°C° 0 mm 1 m/s 755 mmHg 88%
    02:00 -2°C° 0 mm 1 m/s 755 mmHg 89%
    03:00 -4°C° 0 mm 2 m/s 755 mmHg 90%
    04:00 -4°C° 0 mm 2 m/s 755 mmHg 90%
    05:00 -4°C° 0 mm 2 m/s 755 mmHg 91%
    06:00 -4°C° 0 mm 2 m/s 755 mmHg 92%
    07:00 -1°C° 0 mm 1 m/s 755 mmHg 93%
    08:00 -2°C° 0 mm 2 m/s 755 mmHg 91%
    09:00 -2°C° 0 mm 2 m/s 755 mmHg 90%
    10:00 -2°C° 0 mm 2 m/s 755 mmHg 88%
    11:00 -1°C° 0 mm 2 m/s 755 mmHg 85%
    12:00 -1°C° 0 mm 3 m/s 755 mmHg 81%
    13:00 -1°C° 0 mm 2 m/s 754 mmHg 77%
    14:00 -1°C° 0 mm 2 m/s 754 mmHg 79%
    15:00 -1°C° 0 mm 2 m/s 754 mmHg 81%
    16:00 -2°C° 0 mm 2 m/s 754 mmHg 83%
    17:00 -2°C° 0 mm 2 m/s 754 mmHg 85%
    18:00 -3°C° 0 mm 2 m/s 753 mmHg 86%
    19:00 -3°C° 0 mm 2 m/s 753 mmHg 88%
    20:00 -3°C° 0 mm 2 m/s 753 mmHg 89%
    21:00 -4°C° 0 mm 2 m/s 753 mmHg 90%
    22:00 -4°C° 0 mm 2 m/s 752 mmHg 92%
    23:00 -4°C° 0 mm 2 m/s 752 mmHg 92%

    Amanhã, 16 Dezembro, Domingo

    Tempo Temperatura Precipitação Vento Pressão Humidade
    00:00 -4°C° 0 mm 2 m/s 751 mmHg 92%
    01:00 -4°C° 0 mm 2 m/s 751 mmHg 92%
    02:00 -5°C° 0 mm 2 m/s 750 mmHg 92%
    03:00 -5°C° 0 mm 2 m/s 750 mmHg 92%
    04:00 -5°C° 0 mm 2 m/s 750 mmHg 92%
    05:00 -5°C° 0 mm 2 m/s 749 mmHg 92%
    06:00 -5°C° 0 mm 2 m/s 749 mmHg 92%
    07:00 -5°C° 0 mm 2 m/s 749 mmHg 92%
    08:00 -4°C° 0 mm 2 m/s 748 mmHg 89%
    09:00 -4°C° 0 mm 2 m/s 748 mmHg 86%
    10:00 -3°C° 0 mm 2 m/s 748 mmHg 83%
    11:00 -3°C° 0 mm 2 m/s 748 mmHg 79%
    12:00 -2°C° 0 mm 2 m/s 747 mmHg 75%
    13:00 -1°C° 0 mm 2 m/s 747 mmHg 72%
    14:00 -2°C° 0 mm 2 m/s 747 mmHg 74%
    15:00 -3°C° 0 mm 2 m/s 747 mmHg 77%
    16:00 -3°C° 0 mm 2 m/s 747 mmHg 80%
    17:00 -3°C° 0 mm 2 m/s 746 mmHg 79%
    18:00 -3°C° 0 mm 2 m/s 746 mmHg 78%
    19:00 -3°C° 0 mm 2 m/s 746 mmHg 77%
    20:00 -3°C° 0 mm 2 m/s 747 mmHg 77%
    21:00 -3°C° 0 mm 2 m/s 747 mmHg 77%
    22:00 -3°C° 0 mm 2 m/s 747 mmHg 77%
    23:00 -3°C° 0 mm 2 m/s 747 mmHg 78%

    Depois de amanhã, 17 Dezembro, Segunda-feira

    Tempo Temperatura Precipitação Vento Pressão Humidade
    00:00 -3°C° 0 mm 2 m/s 747 mmHg 79%
    01:00 -3°C° 0 mm 2 m/s 747 mmHg 80%
    02:00 -2°C° 0 mm 2 m/s 747 mmHg 81%
    03:00 -2°C° 0 mm 2 m/s 748 mmHg 82%
    04:00 -2°C° 0 mm 2 m/s 748 mmHg 83%
    05:00 -2°C° 0 mm 2 m/s 748 mmHg 85%
    06:00 -2°C° 0 mm 2 m/s 748 mmHg 87%
    07:00 -2°C° 0 mm 2 m/s 748 mmHg 89%
    08:00 -2°C° 0 mm 2 m/s 749 mmHg 87%
    09:00 -1°C° 0 mm 3 m/s 749 mmHg 86%
    10:00 0°C° 0 mm 3 m/s 750 mmHg 84%
    11:00 +1°C° 0 mm 3 m/s 750 mmHg 84%
    12:00 +1°C° 0 mm 3 m/s 750 mmHg 83%
    13:00 +2°C° 0 mm 2 m/s 750 mmHg 82%
    14:00 +2°C° 0 mm 2 m/s 751 mmHg 85%
    15:00 +1°C° 0 mm 2 m/s 751 mmHg 87%
    16:00 +1°C° 0 mm 1 m/s 752 mmHg 90%
    17:00 -1°C° 0 mm 2 m/s 752 mmHg 90%
    18:00 -1°C° 0 mm 2 m/s 752 mmHg 90%
    19:00 -1°C° 0 mm 2 m/s 753 mmHg 91%
    20:00 -1°C° 0 mm 2 m/s 753 mmHg 90%
    21:00 -1°C° 0 mm 2 m/s 754 mmHg 89%
    22:00 -1°C° 0 mm 2 m/s 754 mmHg 88%
    23:00 -1°C° 0.1 mm 2 m/s 754 mmHg 89%

    18 Dezembro, Terça-feira

    Tempo Temperatura Precipitação Vento Pressão Humidade
    00:00 +1°C° 0.1 mm 2 m/s 754 mmHg 89%
    01:00 +1°C° 0.1 mm 2 m/s 754 mmHg 89%
    02:00 +1°C° 0.2 mm 2 m/s 754 mmHg 90%
    03:00 +1°C° 0.2 mm 2 m/s 755 mmHg 91%
    04:00 +2°C° 0.2 mm 1 m/s 755 mmHg 91%
    05:00 +2°C° 0.1 mm 1 m/s 755 mmHg 92%
    06:00 +2°C° 0.1 mm 1 m/s 755 mmHg 92%
    07:00 +1°C° 0.1 mm 1 m/s 755 mmHg 93%
    08:00 +2°C° 0 mm 1 m/s 756 mmHg 92%
    09:00 +2°C° 0 mm 1 m/s 756 mmHg 92%
    10:00 +2°C° 0 mm 1 m/s 756 mmHg 91%
    11:00 +3°C° 0 mm 1 m/s 756 mmHg 91%
    12:00 +3°C° 0 mm 1 m/s 756 mmHg 91%
    13:00 +4°C° 0 mm 1 m/s 756 mmHg 91%
    14:00 +2°C° 0 mm 0 m/s 756 mmHg 92%
    15:00 +1°C° 0 mm 0 m/s 756 mmHg 93%
    16:00 +1°C° 0 mm 0 m/s 756 mmHg 94%
    17:00 +1°C° 0 mm 1 m/s 756 mmHg 94%
    18:00 +1°C° 0 mm 1 m/s 756 mmHg 94%
    19:00 -1°C° 0 mm 2 m/s 756 mmHg 94%
    20:00 -1°C° 0 mm 2 m/s 755 mmHg 93%
    21:00 -2°C° 0 mm 2 m/s 755 mmHg 93%
    22:00 -2°C° 0 mm 2 m/s 755 mmHg 93%
    23:00 -2°C° 0 mm 2 m/s 755 mmHg 92%

    19 Dezembro, Quarta-feira

    Tempo Temperatura Precipitação Vento Pressão Humidade
    00:00 -2°C° 0 mm 2 m/s 755 mmHg 92%
    01:00 -2°C° 0 mm 2 m/s 755 mmHg 92%
    02:00 -2°C° 0 mm 3 m/s 754 mmHg 91%
    03:00 -2°C° 0 mm 3 m/s 754 mmHg 91%
    04:00 -2°C° 0 mm 3 m/s 754 mmHg 90%
    05:00 -2°C° 0 mm 3 m/s 753 mmHg 89%
    06:00 -2°C° 0 mm 3 m/s 753 mmHg 88%
    07:00 -2°C° 0 mm 3 m/s 753 mmHg 87%
    08:00 -1°C° 0 mm 3 m/s 753 mmHg 84%
    09:00 -1°C° 0 mm 3 m/s 753 mmHg 81%
    10:00 0°C° 0 mm 3 m/s 753 mmHg 78%
    11:00 0°C° 0 mm 3 m/s 753 mmHg 76%
    12:00 +1°C° 0 mm 3 m/s 752 mmHg 75%
    13:00 +2°C° 0 mm 3 m/s 752 mmHg 74%
    14:00 +1°C° 0 mm 3 m/s 752 mmHg 77%
    15:00 0°C° 0 mm 3 m/s 752 mmHg 80%
    16:00 0°C° 0 mm 3 m/s 751 mmHg 83%
    17:00 -1°C° 0 mm 3 m/s 751 mmHg 83%
    18:00 -1°C° 0 mm 3 m/s 751 mmHg 83%
    19:00 -2°C° 0 mm 4 m/s 751 mmHg 83%
    20:00 -2°C° 0 mm 4 m/s 751 mmHg 83%
    21:00 -2°C° 0 mm 4 m/s 751 mmHg 82%
    22:00 -2°C° 0 mm 4 m/s 750 mmHg 82%
    23:00 -1°C° 0 mm 3 m/s 750 mmHg 81%

    20 Dezembro, Quinta-feira

    Tempo Temperatura Precipitação Vento Pressão Humidade
    00:00 -1°C° 0 mm 3 m/s 750 mmHg 81%
    01:00 -1°C° 0 mm 3 m/s 750 mmHg 80%
    02:00 -1°C° 0 mm 3 m/s 750 mmHg 80%
    03:00 -1°C° 0 mm 3 m/s 750 mmHg 80%
    04:00 -1°C° 0 mm 3 m/s 750 mmHg 80%
    05:00 -1°C° 0 mm 3 m/s 750 mmHg 80%
    06:00 -1°C° 0 mm 3 m/s 750 mmHg 80%
    07:00 -2°C° 0 mm 3 m/s 750 mmHg 81%
    08:00 -1°C° 0 mm 3 m/s 750 mmHg 80%
    09:00 -1°C° 0 mm 3 m/s 750 mmHg 78%
    10:00 -1°C° 0 mm 3 m/s 750 mmHg 77%
    11:00 -1°C° 0 mm 3 m/s 750 mmHg 77%
    12:00 0°C° 0 mm 3 m/s 750 mmHg 76%
    13:00 0°C° 0 mm 3 m/s 750 mmHg 75%
    14:00 0°C° 0 mm 3 m/s 750 mmHg 77%
    15:00 0°C° 0 mm 3 m/s 750 mmHg 79%
    16:00 -1°C° 0 mm 3 m/s 750 mmHg 80%
    17:00 -1°C° 0.1 mm 3 m/s 750 mmHg 82%
    18:00 -1°C° 0.1 mm 3 m/s 751 mmHg 83%
    19:00 -1°C° 0.1 mm 3 m/s 751 mmHg 84%
    20:00 0°C° 0.3 mm 3 m/s 751 mmHg 86%
    21:00 0°C° 0.3 mm 3 m/s 751 mmHg 87%
    22:00 0°C° 0.3 mm 3 m/s 752 mmHg 88%
    23:00 0°C° 0.1 mm 3 m/s 752 mmHg 89%
    Mostrar mais